Time,TemperatureF,DewpointF,PressureIn,WindDirection,WindDirectionDegrees,WindSpeedMPH,WindSpeedGustMPH,Humidity,HourlyPrecipIn,Conditions,Clouds,dailyrainin,SoftwareType,DateUTC
2013-09-24 00:04:00,49.6,42.0,29.90,West,263,0.0,0.0,75,0.00,,,0.00,Wunderground v.1.15,2013-09-24 07:04:00,
2013-09-24 00:10:00,49.7,42.4,29.90,West,263,0.0,0.0,76,0.00,,,0.00,Wunderground v.1.15,2013-09-24 07:10:00,
2013-09-24 00:16:00,49.4,42.1,29.90,West,263,0.0,1.0,76,0.00,,,0.00,Wunderground v.1.15,2013-09-24 07:16:00,
2013-09-24 00:22:00,49.1,42.5,29.90,West,263,0.0,0.0,78,0.00,,,0.00,Wunderground v.1.15,2013-09-24 07:22:00,
2013-09-24 00:28:00,48.8,42.2,29.90,West,263,0.0,0.0,78,0.00,,,0.00,Wunderground v.1.15,2013-09-24 07:28:00,
2013-09-24 00:34:00,48.6,42.4,29.90,West,263,0.0,0.0,79,0.00,,,0.00,Wunderground v.1.15,2013-09-24 07:34:00,
2013-09-24 00:40:00,48.6,42.4,29.90,West,263,0.0,0.0,79,0.00,,,0.00,Wunderground v.1.15,2013-09-24 07:40:00,
2013-09-24 00:46:00,48.7,42.1,29.90,West,263,0.0,0.0,78,0.00,,,0.00,Wunderground v.1.15,2013-09-24 07:46:00,
2013-09-24 00:52:00,48.9,42.0,29.90,West,263,0.0,0.0,77,0.00,,,0.00,Wunderground v.1.15,2013-09-24 07:52:00,
2013-09-24 00:58:00,49.0,42.4,29.90,West,263,0.0,0.0,78,0.00,,,0.00,Wunderground v.1.15,2013-09-24 07:58:00,
2013-09-24 01:04:00,49.1,42.2,29.90,West,263,0.0,0.0,77,0.00,,,0.00,Wunderground v.1.15,2013-09-24 08:04:00,
2013-09-24 01:10:00,49.1,42.2,29.90,West,263,0.0,0.0,77,0.00,,,0.00,Wunderground v.1.15,2013-09-24 08:10:00,
2013-09-24 01:16:00,49.1,42.9,29.89,West,263,0.0,0.0,79,0.00,,,0.00,Wunderground v.1.15,2013-09-24 08:16:00,
2013-09-24 01:22:00,48.8,42.9,29.89,West,263,0.0,0.0,80,0.00,,,0.00,Wunderground v.1.15,2013-09-24 08:22:00,
2013-09-24 01:28:00,48.7,43.1,29.88,West,263,0.0,5.0,81,0.00,,,0.00,Wunderground v.1.15,2013-09-24 08:28:00,
2013-09-24 01:34:00,48.3,42.7,29.87,ENE,74,4.0,7.0,81,0.00,,,0.01,Wunderground v.1.15,2013-09-24 08:34:00,
2013-09-24 01:40:00,48.2,43.0,29.87,ENE,74,3.0,7.0,82,0.00,,,0.01,Wunderground v.1.15,2013-09-24 08:40:00,
2013-09-24 01:46:00,48.1,43.5,29.88,ENE,74,0.0,2.0,84,0.00,,,0.01,Wunderground v.1.15,2013-09-24 08:46:00,
2013-09-24 01:52:00,48.0,43.4,29.87,ENE,74,1.0,1.0,84,0.00,,,0.01,Wunderground v.1.15,2013-09-24 08:52:00,
2013-09-24 01:58:00,47.9,43.3,29.88,ENE,74,3.0,5.0,84,0.00,,,0.01,Wunderground v.1.15,2013-09-24 08:58:00,
2013-09-24 02:04:00,48.0,43.4,29.88,ENE,74,3.0,3.0,84,0.00,,,0.01,Wunderground v.1.15,2013-09-24 09:04:00,
2013-09-24 02:10:00,48.1,43.5,29.89,ENE,74,1.0,3.0,84,0.00,,,0.01,Wunderground v.1.15,2013-09-24 09:10:00,
2013-09-24 02:16:00,48.2,44.5,29.89,ENE,74,0.0,1.0,87,0.00,,,0.01,Wunderground v.1.15,2013-09-24 09:16:00,
2013-09-24 02:22:00,48.4,43.2,29.88,ENE,74,0.0,0.0,82,0.00,,,0.01,Wunderground v.1.15,2013-09-24 09:22:00,
2013-09-24 02:28:00,48.6,43.7,29.89,ENE,74,1.0,1.0,83,0.00,,,0.01,Wunderground v.1.15,2013-09-24 09:28:00,
2013-09-24 02:34:00,48.4,43.8,29.89,ENE,74,0.0,2.0,84,0.00,,,0.01,Wunderground v.1.15,2013-09-24 09:34:00,
2013-09-24 02:40:00,48.1,44.1,29.88,ENE,74,0.0,2.0,86,0.00,,,0.01,Wunderground v.1.15,2013-09-24 09:40:00,
2013-09-24 02:46:00,48.0,43.7,29.88,ENE,74,0.0,2.0,85,0.00,,,0.01,Wunderground v.1.15,2013-09-24 09:46:00,
2013-09-24 02:52:00,48.0,43.7,29.87,ENE,74,1.0,3.0,85,0.00,,,0.01,Wunderground v.1.15,2013-09-24 09:52:00,
2013-09-24 02:58:00,48.1,43.5,29.87,ENE,74,1.0,5.0,84,0.00,,,0.01,Wunderground v.1.15,2013-09-24 09:58:00,
2013-09-24 03:04:00,48.1,43.8,29.87,ENE,74,3.0,4.0,85,0.00,,,0.01,Wunderground v.1.15,2013-09-24 10:04:00,
2013-09-24 03:10:00,48.3,43.7,29.86,ENE,71,5.0,5.0,84,0.00,,,0.01,Wunderground v.1.15,2013-09-24 10:10:00,
2013-09-24 03:16:00,48.3,43.7,29.86,ENE,72,4.0,5.0,84,0.00,,,0.01,Wunderground v.1.15,2013-09-24 10:16:00,
2013-09-24 03:22:00,48.2,43.9,29.86,ENE,72,3.0,3.0,85,0.00,,,0.01,Wunderground v.1.15,2013-09-24 10:22:00,
2013-09-24 03:28:00,48.2,43.9,29.86,ENE,72,3.0,3.0,85,0.00,,,0.01,Wunderground v.1.15,2013-09-24 10:28:00,
2013-09-24 03:34:00,48.1,43.8,29.86,ENE,72,1.0,2.0,85,0.00,,,0.01,Wunderground v.1.15,2013-09-24 10:34:00,
2013-09-24 03:40:00,48.1,43.8,29.86,ENE,72,3.0,4.0,85,0.00,,,0.01,Wunderground v.1.15,2013-09-24 10:40:00,
2013-09-24 03:46:00,48.0,43.7,29.86,ENE,73,4.0,4.0,85,0.00,,,0.01,Wunderground v.1.15,2013-09-24 10:46:00,
2013-09-24 03:52:00,48.0,43.7,29.86,ENE,72,3.0,3.0,85,0.00,,,0.01,Wunderground v.1.15,2013-09-24 10:52:00,
2013-09-24 03:58:00,48.0,43.7,29.86,ENE,73,1.0,3.0,85,0.00,,,0.01,Wunderground v.1.15,2013-09-24 10:58:00,
2013-09-24 04:04:00,48.1,44.1,29.86,ENE,73,0.0,0.0,86,0.00,,,0.01,Wunderground v.1.15,2013-09-24 11:04:00,
2013-09-24 04:10:00,48.0,44.0,29.86,ENE,73,0.0,0.0,86,0.00,,,0.01,Wunderground v.1.15,2013-09-24 11:10:00,
2013-09-24 04:16:00,47.9,43.9,29.86,ENE,72,0.0,0.0,86,0.00,,,0.01,Wunderground v.1.15,2013-09-24 11:16:00,
2013-09-24 04:22:00,47.8,43.8,29.86,ENE,73,0.0,0.0,86,0.00,,,0.01,Wunderground v.1.15,2013-09-24 11:22:00,
2013-09-24 04:28:00,47.8,44.1,29.86,ENE,73,0.0,0.0,87,0.00,,,0.01,Wunderground v.1.15,2013-09-24 11:28:00,
2013-09-24 04:34:00,47.7,43.7,29.86,ENE,73,0.0,0.0,86,0.00,,,0.01,Wunderground v.1.15,2013-09-24 11:34:00,
2013-09-24 04:40:00,47.6,43.6,29.85,ENE,73,0.0,0.0,86,0.00,,,0.01,Wunderground v.1.15,2013-09-24 11:40:00,
2013-09-24 04:46:00,47.6,43.6,29.85,ENE,73,0.0,0.0,86,0.00,,,0.01,Wunderground v.1.15,2013-09-24 11:46:00,
2013-09-24 04:52:00,47.6,43.6,29.85,ENE,72,0.0,0.0,86,0.00,,,0.01,Wunderground v.1.15,2013-09-24 11:52:00,
2013-09-24 05:02:00,47.5,43.8,29.84,ENE,73,0.0,0.0,87,0.00,,,0.01,Wunderground v.1.15,2013-09-24 12:02:00,
2013-09-24 05:08:00,47.5,43.8,29.84,ENE,73,0.0,0.0,87,0.00,,,0.01,Wunderground v.1.15,2013-09-24 12:08:00,
2013-09-24 05:14:00,47.4,43.7,29.84,ENE,73,0.0,0.0,87,0.00,,,0.01,Wunderground v.1.15,2013-09-24 12:14:00,
2013-09-24 05:20:00,47.2,43.8,29.84,ENE,73,0.0,0.0,88,0.00,,,0.01,Wunderground v.1.15,2013-09-24 12:20:00,
2013-09-24 05:28:00,46.9,43.5,29.84,ENE,72,0.0,0.0,88,0.00,,,0.01,Wunderground v.1.15,2013-09-24 12:28:00,
2013-09-24 05:34:00,46.8,43.7,29.84,ENE,72,0.0,0.0,89,0.00,,,0.01,Wunderground v.1.15,2013-09-24 12:34:00,
2013-09-24 05:40:00,46.7,43.6,29.84,ENE,73,0.0,0.0,89,0.00,,,0.01,Wunderground v.1.15,2013-09-24 12:40:00,
2013-09-24 05:46:00,46.7,43.6,29.84,ENE,73,0.0,0.0,89,0.00,,,0.01,Wunderground v.1.15,2013-09-24 12:46:00,
2013-09-24 05:52:00,46.7,43.9,29.83,ENE,72,0.0,0.0,90,0.00,,,0.01,Wunderground v.1.15,2013-09-24 12:52:00,
2013-09-24 05:58:00,46.7,43.9,29.83,ENE,73,0.0,0.0,90,0.00,,,0.01,Wunderground v.1.15,2013-09-24 12:58:00,
2013-09-24 06:04:00,46.6,43.8,29.83,ENE,73,0.0,0.0,90,0.00,,,0.01,Wunderground v.1.15,2013-09-24 13:04:00,
2013-09-24 06:10:00,46.6,43.8,29.83,ENE,73,0.0,0.0,90,0.00,,,0.01,Wunderground v.1.15,2013-09-24 13:10:00,
2013-09-24 06:16:00,46.6,43.8,29.83,ENE,73,0.0,0.0,90,0.00,,,0.01,Wunderground v.1.15,2013-09-24 13:16:00,
2013-09-24 06:22:00,46.5,43.7,29.82,ENE,73,0.0,0.0,90,0.00,,,0.01,Wunderground v.1.15,2013-09-24 13:22:00,
2013-09-24 06:28:00,46.5,43.7,29.82,ENE,73,0.0,0.0,90,0.00,,,0.01,Wunderground v.1.15,2013-09-24 13:28:00,
2013-09-24 06:34:00,46.5,43.7,29.82,ENE,72,0.0,0.0,90,0.00,,,0.01,Wunderground v.1.15,2013-09-24 13:34:00,
2013-09-24 06:40:00,46.4,43.6,29.82,ENE,73,0.0,0.0,90,0.00,,,0.01,Wunderground v.1.15,2013-09-24 13:40:00,
2013-09-24 06:46:00,46.3,43.5,29.82,ENE,73,0.0,0.0,90,0.00,,,0.01,Wunderground v.1.15,2013-09-24 13:46:00,
2013-09-24 06:52:00,46.0,43.2,29.82,ENE,72,0.0,0.0,90,0.00,,,0.01,Wunderground v.1.15,2013-09-24 13:52:00,
2013-09-24 06:58:00,45.9,43.4,29.82,ENE,73,0.0,0.0,91,0.00,,,0.01,Wunderground v.1.15,2013-09-24 13:58:00,
2013-09-24 07:04:00,45.7,43.2,29.82,ENE,73,0.0,0.0,91,0.00,,,0.01,Wunderground v.1.15,2013-09-24 14:04:00,
2013-09-24 07:10:00,45.6,43.4,29.82,ENE,72,0.0,0.0,92,0.00,,,0.01,Wunderground v.1.15,2013-09-24 14:10:00,
2013-09-24 07:16:00,45.6,43.4,29.82,ENE,73,0.0,0.0,92,0.00,,,0.01,Wunderground v.1.15,2013-09-24 14:16:00,
2013-09-24 07:22:00,45.6,43.4,29.82,ENE,73,0.0,0.0,92,0.00,,,0.01,Wunderground v.1.15,2013-09-24 14:22:00,
2013-09-24 07:28:00,45.3,43.1,29.81,ENE,73,0.0,1.0,92,0.00,,,0.01,Wunderground v.1.15,2013-09-24 14:28:00,
2013-09-24 07:34:00,45.3,43.4,29.82,ENE,73,0.0,0.0,93,0.00,,,0.01,Wunderground v.1.15,2013-09-24 14:34:00,
2013-09-24 07:40:00,45.4,43.5,29.82,ENE,73,0.0,0.0,93,0.00,,,0.01,Wunderground v.1.15,2013-09-24 14:40:00,
2013-09-24 07:46:00,45.6,43.7,29.82,ENE,72,0.0,0.0,93,0.00,,,0.01,Wunderground v.1.15,2013-09-24 14:46:00,
2013-09-24 07:52:00,45.7,43.5,29.82,ENE,73,0.0,2.0,92,0.00,,,0.01,Wunderground v.1.15,2013-09-24 14:52:00,
2013-09-24 07:58:00,45.9,43.7,29.82,ENE,72,0.0,3.0,92,0.00,,,0.01,Wunderground v.1.15,2013-09-24 14:58:00,
2013-09-24 08:04:00,46.1,43.6,29.82,ENE,59,1.0,1.0,91,0.00,,,0.01,Wunderground v.1.15,2013-09-24 15:04:00,
2013-09-24 08:10:00,46.4,43.6,29.82,ENE,59,0.0,1.0,90,0.00,,,0.01,Wunderground v.1.15,2013-09-24 15:10:00,
2013-09-24 08:16:00,46.6,43.5,29.82,NE,52,1.0,3.0,89,0.00,,,0.01,Wunderground v.1.15,2013-09-24 15:16:00,
2013-09-24 08:22:00,46.8,44.0,29.82,NE,51,1.0,1.0,90,0.00,,,0.01,Wunderground v.1.15,2013-09-24 15:22:00,
2013-09-24 08:28:00,46.8,44.0,29.82,NNE,33,1.0,2.0,90,0.00,,,0.02,Wunderground v.1.15,2013-09-24 15:28:00,
2013-09-24 08:34:00,46.7,44.2,29.83,NNE,16,2.0,6.0,91,0.00,,,0.02,Wunderground v.1.15,2013-09-24 15:34:00,
2013-09-24 08:40:00,46.5,44.3,29.83,NNW,346,3.0,7.0,92,0.04,,,0.03,Wunderground v.1.15,2013-09-24 15:40:00,
2013-09-24 08:46:00,46.4,44.5,29.83,NNW,346,3.0,4.0,93,0.04,,,0.03,Wunderground v.1.15,2013-09-24 15:46:00,
2013-09-24 08:52:00,46.3,44.4,29.83,NNW,346,3.0,3.0,93,0.08,,,0.04,Wunderground v.1.15,2013-09-24 15:52:00,
2013-09-24 08:58:00,46.3,44.7,29.83,NNW,346,2.0,3.0,94,0.05,,,0.04,Wunderground v.1.15,2013-09-24 15:58:00,
2013-09-24 09:04:00,46.3,44.9,29.83,NNW,346,1.0,2.0,95,0.00,,,0.04,Wunderground v.1.15,2013-09-24 16:04:00,
2013-09-24 09:10:00,46.3,44.9,29.83,NNW,346,0.0,2.0,95,0.00,,,0.04,Wunderground v.1.15,2013-09-24 16:10:00,
2013-09-24 09:16:00,46.4,44.8,29.83,NNW,346,1.0,1.0,94,0.00,,,0.05,Wunderground v.1.15,2013-09-24 16:16:00,
2013-09-24 09:22:00,46.4,45.0,29.83,NNW,346,1.0,1.0,95,0.00,,,0.05,Wunderground v.1.15,2013-09-24 16:22:00,
2013-09-24 09:30:00,46.5,44.9,29.82,NNW,346,0.0,1.0,94,0.00,,,0.05,Wunderground v.1.15,2013-09-24 16:30:00,
2013-09-24 09:36:00,46.7,45.1,29.83,NNW,346,0.0,0.0,94,0.00,,,0.05,Wunderground v.1.15,2013-09-24 16:36:00,
2013-09-24 09:42:00,46.9,45.0,29.82,NNW,346,0.0,0.0,93,0.00,,,0.05,Wunderground v.1.15,2013-09-24 16:42:00,
2013-09-24 09:48:00,46.8,44.3,29.83,NNW,346,0.0,0.0,91,0.00,,,0.06,Wunderground v.1.15,2013-09-24 16:48:00,
2013-09-24 09:54:00,47.0,44.8,29.82,NNW,346,0.0,0.0,92,0.00,,,0.06,Wunderground v.1.15,2013-09-24 16:54:00,
2013-09-24 10:02:00,47.3,44.8,29.83,NNW,346,0.0,0.0,91,0.00,,,0.06,Wunderground v.1.15,2013-09-24 17:02:00,
2013-09-24 10:08:00,47.6,45.1,29.83,NNW,346,0.0,0.0,91,0.00,,,0.06,Wunderground v.1.15,2013-09-24 17:08:00,
2013-09-24 10:14:00,47.6,44.8,29.83,NNW,346,0.0,0.0,90,0.00,,,0.06,Wunderground v.1.15,2013-09-24 17:14:00,
2013-09-24 10:20:00,47.5,44.7,29.82,NNW,346,1.0,2.0,90,0.00,,,0.06,Wunderground v.1.15,2013-09-24 17:20:00,
2013-09-24 10:26:00,47.4,44.6,29.82,NNW,346,1.0,2.0,90,0.00,,,0.06,Wunderground v.1.15,2013-09-24 17:26:00,
2013-09-24 10:32:00,47.5,45.3,29.82,NNW,346,1.0,1.0,92,0.00,,,0.06,Wunderground v.1.15,2013-09-24 17:32:00,
2013-09-24 10:38:00,47.8,45.6,29.82,NNW,346,0.0,1.0,92,0.00,,,0.06,Wunderground v.1.15,2013-09-24 17:38:00,
2013-09-24 10:44:00,48.0,45.5,29.82,NNW,346,0.0,3.0,91,0.00,,,0.06,Wunderground v.1.15,2013-09-24 17:44:00,
2013-09-24 10:50:00,48.3,45.8,29.82,NNW,346,1.0,3.0,91,0.00,,,0.06,Wunderground v.1.15,2013-09-24 17:50:00,
2013-09-24 10:56:00,48.4,45.6,29.81,ENE,61,4.0,6.0,90,0.00,,,0.06,Wunderground v.1.15,2013-09-24 17:56:00,
2013-09-24 11:02:00,48.8,46.3,29.81,ENE,71,6.0,7.0,91,0.00,,,0.06,Wunderground v.1.15,2013-09-24 18:02:00,
2013-09-24 11:08:00,49.3,45.9,29.82,ENE,71,5.0,7.0,88,0.00,,,0.06,Wunderground v.1.15,2013-09-24 18:08:00,
2013-09-24 11:14:00,49.5,46.1,29.82,ENE,71,5.0,6.0,88,0.00,,,0.06,Wunderground v.1.15,2013-09-24 18:14:00,
2013-09-24 11:20:00,49.8,46.1,29.82,ENE,68,2.0,2.0,87,0.00,,,0.06,Wunderground v.1.15,2013-09-24 18:20:00,
2013-09-24 11:26:00,49.7,46.0,29.82,ENE,68,1.0,2.0,87,0.00,,,0.06,Wunderground v.1.15,2013-09-24 18:26:00,
2013-09-24 11:32:00,49.7,46.0,29.82,ENE,68,1.0,1.0,87,0.00,,,0.06,Wunderground v.1.15,2013-09-24 18:32:00,
2013-09-24 11:38:00,49.8,45.8,29.82,ENE,68,1.0,2.0,86,0.00,,,0.06,Wunderground v.1.15,2013-09-24 18:38:00,
2013-09-24 11:44:00,50.0,46.9,29.82,ENE,68,1.0,2.0,89,0.00,,,0.06,Wunderground v.1.15,2013-09-24 18:44:00,
2013-09-24 11:50:00,50.2,44.9,29.81,ENE,68,2.0,2.0,82,0.00,,,0.06,Wunderground v.1.15,2013-09-24 18:50:00,
2013-09-24 11:56:00,50.5,44.9,29.81,ENE,68,2.0,2.0,81,0.00,,,0.06,Wunderground v.1.15,2013-09-24 18:56:00,
2013-09-24 12:02:00,50.9,44.9,29.81,ENE,68,1.0,2.0,80,0.00,,,0.06,Wunderground v.1.15,2013-09-24 19:02:00,
2013-09-24 12:08:00,51.3,44.3,29.82,ENE,68,1.0,2.0,77,0.00,,,0.06,Wunderground v.1.15,2013-09-24 19:08:00,
2013-09-24 12:14:00,51.5,44.5,29.82,ENE,68,1.0,1.0,77,0.00,,,0.06,Wunderground v.1.15,2013-09-24 19:14:00,
2013-09-24 12:20:00,51.7,43.7,29.82,ENE,68,1.0,1.0,74,0.00,,,0.06,Wunderground v.1.15,2013-09-24 19:20:00,
2013-09-24 12:26:00,52.0,45.4,29.81,ENE,68,1.0,4.0,78,0.00,,,0.06,Wunderground v.1.15,2013-09-24 19:26:00,
2013-09-24 12:32:00,52.2,44.2,29.82,ENE,68,1.0,1.0,74,0.00,,,0.06,Wunderground v.1.15,2013-09-24 19:32:00,
2013-09-24 12:38:00,52.2,44.5,29.82,ENE,68,1.0,2.0,75,0.00,,,0.06,Wunderground v.1.15,2013-09-24 19:38:00,
2013-09-24 12:44:00,52.6,44.2,29.82,ENE,68,1.0,1.0,73,0.00,,,0.06,Wunderground v.1.15,2013-09-24 19:44:00,
2013-09-24 12:50:00,52.9,43.4,29.82,ENE,68,1.0,1.0,70,0.00,,,0.06,Wunderground v.1.15,2013-09-24 19:50:00,
2013-09-24 12:56:00,52.9,43.0,29.82,ENE,68,1.0,1.0,69,0.00,,,0.06,Wunderground v.1.15,2013-09-24 19:56:00,
2013-09-24 13:02:00,53.2,43.7,29.82,ENE,68,0.0,0.0,70,0.00,,,0.06,Wunderground v.1.15,2013-09-24 20:02:00,
2013-09-24 13:08:00,53.2,42.9,29.82,ENE,68,1.0,2.0,68,0.00,,,0.06,Wunderground v.1.15,2013-09-24 20:08:00,
2013-09-24 13:14:00,53.0,43.5,29.82,ENE,68,1.0,1.0,70,0.00,,,0.06,Wunderground v.1.15,2013-09-24 20:14:00,
2013-09-24 13:20:00,52.9,43.0,29.82,ENE,68,0.0,2.0,69,0.00,,,0.06,Wunderground v.1.15,2013-09-24 20:20:00,
2013-09-24 13:26:00,52.8,42.1,29.82,ENE,68,1.0,4.0,67,0.00,,,0.06,Wunderground v.1.15,2013-09-24 20:26:00,
2013-09-24 13:32:00,52.4,41.4,29.82,WNW,290,4.0,9.0,66,0.00,,,0.06,Wunderground v.1.15,2013-09-24 20:32:00,
2013-09-24 13:38:00,53.0,41.5,29.82,WNW,290,8.0,9.0,65,0.00,,,0.06,Wunderground v.1.15,2013-09-24 20:38:00,
2013-09-24 13:44:00,54.0,42.9,29.82,WNW,288,9.0,10.0,66,0.00,,,0.06,Wunderground v.1.15,2013-09-24 20:44:00,
2013-09-24 13:50:00,54.4,42.5,29.82,WNW,290,8.0,8.0,64,0.00,,,0.06,Wunderground v.1.15,2013-09-24 20:50:00,
2013-09-24 13:56:00,53.6,40.9,29.81,NW,325,9.0,16.0,62,0.00,,,0.06,Wunderground v.1.15,2013-09-24 20:56:00,
2013-09-24 14:02:00,52.3,40.5,29.81,NNW,337,10.0,12.0,64,0.00,,,0.06,Wunderground v.1.15,2013-09-24 21:02:00,
2013-09-24 14:08:00,52.3,40.9,29.81,NW,304,10.0,12.0,65,0.00,,,0.06,Wunderground v.1.15,2013-09-24 21:08:00,
2013-09-24 14:14:00,53.6,40.9,29.81,NW,308,9.0,10.0,62,0.00,,,0.06,Wunderground v.1.15,2013-09-24 21:14:00,
2013-09-24 14:20:00,53.7,40.1,29.81,West,267,9.0,9.0,60,0.00,,,0.06,Wunderground v.1.15,2013-09-24 21:20:00,
2013-09-24 14:26:00,53.7,41.4,29.81,NW,309,9.0,13.0,63,0.00,,,0.06,Wunderground v.1.15,2013-09-24 21:26:00,
2013-09-24 14:32:00,53.9,41.2,29.81,WNW,296,8.0,13.0,62,0.00,,,0.06,Wunderground v.1.15,2013-09-24 21:32:00,
2013-09-24 14:38:00,52.9,40.2,29.81,NW,326,9.0,13.0,62,0.00,,,0.06,Wunderground v.1.15,2013-09-24 21:38:00,
2013-09-24 14:44:00,52.2,40.8,29.81,NW,323,9.0,9.0,65,0.00,,,0.06,Wunderground v.1.15,2013-09-24 21:44:00,
2013-09-24 14:50:00,52.4,41.0,29.81,WNW,288,8.0,8.0,65,0.00,,,0.06,Wunderground v.1.15,2013-09-24 21:50:00,
2013-09-24 14:56:00,52.7,41.3,29.81,NW,313,9.0,12.0,65,0.00,,,0.06,Wunderground v.1.15,2013-09-24 21:56:00,
2013-09-24 15:02:00,52.6,39.5,29.81,NW,317,9.0,15.0,61,0.00,,,0.06,Wunderground v.1.15,2013-09-24 22:02:00,
2013-09-24 15:08:00,52.2,40.8,29.81,West,275,8.0,15.0,65,0.00,,,0.06,Wunderground v.1.15,2013-09-24 22:08:00,
2013-09-24 15:14:00,52.0,40.6,29.81,NW,321,6.0,7.0,65,0.00,,,0.06,Wunderground v.1.15,2013-09-24 22:14:00,
2013-09-24 15:20:00,51.9,40.1,29.81,NW,317,7.0,7.0,64,0.00,,,0.06,Wunderground v.1.15,2013-09-24 22:20:00,
2013-09-24 15:26:00,52.0,41.0,29.81,NW,325,6.0,13.0,66,0.00,,,0.06,Wunderground v.1.15,2013-09-24 22:26:00,
2013-09-24 15:32:00,52.4,40.2,29.81,NNW,340,5.0,9.0,63,0.00,,,0.06,Wunderground v.1.15,2013-09-24 22:32:00,
2013-09-24 15:38:00,52.5,40.3,29.81,NNW,344,4.0,9.0,63,0.00,,,0.06,Wunderground v.1.15,2013-09-24 22:38:00,
2013-09-24 15:44:00,52.4,40.2,29.81,NW,313,5.0,5.0,63,0.00,,,0.06,Wunderground v.1.15,2013-09-24 22:44:00,
2013-09-24 15:50:00,52.2,40.0,29.81,NW,321,4.0,5.0,63,0.00,,,0.06,Wunderground v.1.15,2013-09-24 22:50:00,
2013-09-24 15:56:00,52.1,39.9,29.81,NW,323,5.0,7.0,63,0.00,,,0.06,Wunderground v.1.15,2013-09-24 22:56:00,
2013-09-24 16:02:00,51.9,39.7,29.81,NW,326,5.0,6.0,63,0.00,,,0.06,Wunderground v.1.15,2013-09-24 23:02:00,
2013-09-24 16:08:00,52.1,40.3,29.81,WNW,293,4.0,6.0,64,0.00,,,0.06,Wunderground v.1.15,2013-09-24 23:08:00,
2013-09-24 16:14:00,51.9,40.1,29.81,NW,306,4.0,6.0,64,0.00,,,0.06,Wunderground v.1.15,2013-09-24 23:14:00,
2013-09-24 16:20:00,51.6,39.4,29.81,NW,318,5.0,5.0,63,0.00,,,0.06,Wunderground v.1.15,2013-09-24 23:20:00,
2013-09-24 16:26:00,51.5,39.3,29.80,NW,304,6.0,7.0,63,0.00,,,0.06,Wunderground v.1.15,2013-09-24 23:26:00,
2013-09-24 16:32:00,51.2,39.4,29.81,NW,306,6.0,9.0,64,0.00,,,0.06,Wunderground v.1.15,2013-09-24 23:32:00,
2013-09-24 16:38:00,50.9,39.9,29.81,NW,307,6.0,9.0,66,0.00,,,0.06,Wunderground v.1.15,2013-09-24 23:38:00,
2013-09-24 16:44:00,50.6,40.8,29.81,NNW,328,4.0,6.0,69,0.00,,,0.06,Wunderground v.1.15,2013-09-24 23:44:00,
2013-09-24 16:50:00,50.2,41.5,29.81,NW,317,4.0,4.0,72,0.00,,,0.06,Wunderground v.1.15,2013-09-24 23:50:00,
2013-09-24 16:56:00,50.0,41.3,29.81,NNW,339,3.0,5.0,72,0.00,,,0.06,Wunderground v.1.15,2013-09-24 23:56:00,
2013-09-24 17:02:00,49.7,41.0,29.81,NNW,338,3.0,3.0,72,0.00,,,0.06,Wunderground v.1.15,2013-09-25 00:02:00,
2013-09-24 17:08:00,49.6,41.3,29.81,NW,317,3.0,6.0,73,0.00,,,0.06,Wunderground v.1.15,2013-09-25 00:08:00,
2013-09-24 17:14:00,49.3,41.4,29.81,North,355,3.0,4.0,74,0.00,,,0.06,Wunderground v.1.15,2013-09-25 00:14:00,
2013-09-24 17:20:00,49.2,40.9,29.81,NNW,342,3.0,4.0,73,0.00,,,0.06,Wunderground v.1.15,2013-09-25 00:20:00,
2013-09-24 17:26:00,49.2,40.2,29.81,NNW,348,3.0,9.0,71,0.00,,,0.06,Wunderground v.1.15,2013-09-25 00:26:00,
2013-09-24 17:32:00,49.0,40.0,29.81,NNW,343,3.0,5.0,71,0.00,,,0.06,Wunderground v.1.15,2013-09-25 00:32:00,
2013-09-24 17:40:00,48.8,39.8,29.81,NNW,346,3.0,5.0,71,0.00,,,0.06,Wunderground v.1.15,2013-09-25 00:40:00,
2013-09-24 17:46:00,48.6,40.0,29.81,NNW,336,4.0,7.0,72,0.00,,,0.06,Wunderground v.1.15,2013-09-25 00:46:00,
2013-09-24 17:52:00,48.3,39.7,29.81,NNW,344,4.0,5.0,72,0.00,,,0.06,Wunderground v.1.15,2013-09-25 00:52:00,
2013-09-24 17:58:00,48.1,39.1,29.81,NNW,345,3.0,7.0,71,0.00,,,0.06,Wunderground v.1.15,2013-09-25 00:58:00,
2013-09-24 18:04:00,47.8,39.6,29.81,WNW,297,4.0,9.0,73,0.00,,,0.06,Wunderground v.1.15,2013-09-25 01:04:00,
2013-09-24 18:10:00,47.3,39.8,29.81,WNW,301,5.0,8.0,75,0.00,,,0.06,Wunderground v.1.15,2013-09-25 01:10:00,
2013-09-24 18:16:00,46.9,39.0,29.81,NNW,328,7.0,8.0,74,0.00,,,0.06,Wunderground v.1.15,2013-09-25 01:16:00,
2013-09-24 18:22:00,46.7,39.5,29.81,NNW,329,5.0,6.0,76,0.00,,,0.06,Wunderground v.1.15,2013-09-25 01:22:00,
2013-09-24 18:28:00,46.5,39.0,29.80,NW,317,4.0,6.0,75,0.00,,,0.06,Wunderground v.1.15,2013-09-25 01:28:00,
2013-09-24 18:34:00,46.4,38.6,29.80,NNW,331,3.0,9.0,74,0.00,,,0.06,Wunderground v.1.15,2013-09-25 01:34:00,
2013-09-24 18:40:00,46.2,38.7,29.80,NW,313,3.0,5.0,75,0.00,,,0.06,Wunderground v.1.15,2013-09-25 01:40:00,
2013-09-24 18:46:00,46.0,38.5,29.80,NW,306,2.0,5.0,75,0.00,,,0.06,Wunderground v.1.15,2013-09-25 01:46:00,
2013-09-24 18:52:00,45.8,38.3,29.80,NW,319,2.0,3.0,75,0.00,,,0.06,Wunderground v.1.15,2013-09-25 01:52:00,
2013-09-24 18:58:00,45.5,38.4,29.79,NNW,331,2.0,3.0,76,0.00,,,0.06,Wunderground v.1.15,2013-09-25 01:58:00,
2013-09-24 19:04:00,45.4,38.6,29.79,NNW,331,1.0,3.0,77,0.00,,,0.06,Wunderground v.1.15,2013-09-25 02:04:00,
2013-09-24 19:10:00,45.1,38.3,29.79,NNW,331,1.0,1.0,77,0.00,,,0.06,Wunderground v.1.15,2013-09-25 02:10:00,
2013-09-24 19:16:00,45.0,38.9,29.80,NNW,331,0.0,1.0,79,0.00,,,0.06,Wunderground v.1.15,2013-09-25 02:16:00,
2013-09-24 19:22:00,44.7,38.3,29.80,NNW,331,0.0,1.0,78,0.00,,,0.06,Wunderground v.1.15,2013-09-25 02:22:00,
2013-09-24 19:28:00,44.6,38.8,29.80,NNW,331,0.0,1.0,80,0.00,,,0.06,Wunderground v.1.15,2013-09-25 02:28:00,
2013-09-24 19:34:00,44.5,38.4,29.80,NNW,331,0.0,0.0,79,0.00,,,0.06,Wunderground v.1.15,2013-09-25 02:34:00,
2013-09-24 19:40:00,44.5,38.7,29.80,NNW,331,0.0,0.0,80,0.00,,,0.06,Wunderground v.1.15,2013-09-25 02:40:00,
2013-09-24 19:46:00,44.3,38.8,29.80,NNW,331,0.0,0.0,81,0.00,,,0.06,Wunderground v.1.15,2013-09-25 02:46:00,
2013-09-24 19:52:00,44.3,38.5,29.80,NNW,331,0.0,0.0,80,0.00,,,0.06,Wunderground v.1.15,2013-09-25 02:52:00,
2013-09-24 19:58:00,44.1,38.3,29.80,NNW,331,0.0,0.0,80,0.00,,,0.06,Wunderground v.1.15,2013-09-25 02:58:00,
2013-09-24 20:04:00,44.1,38.6,29.80,NNW,331,0.0,0.0,81,0.00,,,0.06,Wunderground v.1.15,2013-09-25 03:04:00,
2013-09-24 20:10:00,44.1,38.6,29.80,NNW,331,0.0,0.0,81,0.00,,,0.06,Wunderground v.1.15,2013-09-25 03:10:00,
2013-09-24 20:16:00,44.1,38.3,29.80,NNW,331,0.0,0.0,80,0.00,,,0.06,Wunderground v.1.15,2013-09-25 03:16:00,
2013-09-24 20:22:00,44.1,38.6,29.81,NNW,331,0.0,2.0,81,0.00,,,0.06,Wunderground v.1.15,2013-09-25 03:22:00,
2013-09-24 20:28:00,44.0,38.5,29.81,NE,46,2.0,4.0,81,0.00,,,0.06,Wunderground v.1.15,2013-09-25 03:28:00,
2013-09-24 20:34:00,44.1,38.6,29.81,NE,46,2.0,3.0,81,0.00,,,0.06,Wunderground v.1.15,2013-09-25 03:34:00,
2013-09-24 20:40:00,44.0,38.9,29.81,NE,46,1.0,1.0,82,0.00,,,0.06,Wunderground v.1.15,2013-09-25 03:40:00,
2013-09-24 20:46:00,43.9,38.4,29.81,NE,46,0.0,1.0,81,0.00,,,0.06,Wunderground v.1.15,2013-09-25 03:46:00,
2013-09-24 20:52:00,43.9,38.8,29.81,NE,46,0.0,0.0,82,0.00,,,0.06,Wunderground v.1.15,2013-09-25 03:52:00,
2013-09-24 20:58:00,44.0,38.9,29.81,NE,46,0.0,0.0,82,0.00,,,0.06,Wunderground v.1.15,2013-09-25 03:58:00,
2013-09-24 21:02:00,43.9,38.8,29.81,NE,46,0.0,0.0,82,0.00,,,0.06,Wunderground v.1.15,2013-09-25 04:02:00,
2013-09-24 21:04:00,43.9,38.8,29.81,NE,46,0.0,0.0,82,0.00,,,0.06,Wunderground v.1.15,2013-09-25 04:04:00,
2013-09-24 21:08:00,43.9,38.8,29.81,NE,46,0.0,0.0,82,0.00,,,0.06,Wunderground v.1.15,2013-09-25 04:08:00,
2013-09-24 21:10:00,43.9,39.1,29.81,NE,46,0.0,0.0,83,0.00,,,0.06,Wunderground v.1.15,2013-09-25 04:10:00,
2013-09-24 21:16:00,43.8,39.0,29.81,NE,46,0.0,0.0,83,0.00,,,0.06,Wunderground v.1.15,2013-09-25 04:16:00,
2013-09-24 21:22:00,43.8,39.3,29.80,NE,46,0.0,1.0,84,0.00,,,0.06,Wunderground v.1.15,2013-09-25 04:22:00,
2013-09-24 21:28:00,43.7,38.9,29.80,NE,46,0.0,1.0,83,0.00,,,0.06,Wunderground v.1.15,2013-09-25 04:28:00,
2013-09-24 21:32:00,43.7,38.9,29.80,NE,46,0.0,0.0,83,0.00,,,0.06,Wunderground v.1.15,2013-09-25 04:32:00,
2013-09-24 21:38:00,43.7,39.2,29.80,NE,46,0.0,0.0,84,0.00,,,0.06,Wunderground v.1.15,2013-09-25 04:38:00,
2013-09-24 21:44:00,43.6,39.1,29.80,NE,46,0.0,0.0,84,0.00,,,0.06,Wunderground v.1.15,2013-09-25 04:44:00,
2013-09-24 21:50:00,43.6,38.8,29.80,NE,46,0.0,0.0,83,0.00,,,0.06,Wunderground v.1.15,2013-09-25 04:50:00,
2013-09-24 21:56:00,43.6,38.8,29.80,NE,46,0.0,0.0,83,0.00,,,0.06,Wunderground v.1.15,2013-09-25 04:56:00,
2013-09-24 22:02:00,43.6,39.1,29.80,NE,46,0.0,1.0,84,0.00,,,0.06,Wunderground v.1.15,2013-09-25 05:02:00,
2013-09-24 22:08:00,43.4,38.9,29.80,NE,46,0.0,1.0,84,0.00,,,0.06,Wunderground v.1.15,2013-09-25 05:08:00,
2013-09-24 22:14:00,43.3,39.1,29.80,NE,46,0.0,0.0,85,0.00,,,0.06,Wunderground v.1.15,2013-09-25 05:14:00,
2013-09-24 22:20:00,43.3,40.3,29.80,NE,46,0.0,0.0,89,0.00,,,0.06,Wunderground v.1.15,2013-09-25 05:20:00,
2013-09-24 22:26:00,43.1,38.9,29.80,NE,46,0.0,1.0,85,0.00,,,0.06,Wunderground v.1.15,2013-09-25 05:26:00,
2013-09-24 22:32:00,43.1,38.9,29.80,NE,46,0.0,0.0,85,0.00,,,0.06,Wunderground v.1.15,2013-09-25 05:32:00,
2013-09-24 22:38:00,43.1,38.9,29.80,NE,46,0.0,0.0,85,0.00,,,0.06,Wunderground v.1.15,2013-09-25 05:38:00,
2013-09-24 22:44:00,43.1,38.9,29.80,NE,46,0.0,1.0,85,0.00,,,0.06,Wunderground v.1.15,2013-09-25 05:44:00,
2013-09-24 22:50:00,43.1,39.2,29.80,NE,46,0.0,0.0,86,0.00,,,0.06,Wunderground v.1.15,2013-09-25 05:50:00,
2013-09-24 22:56:00,43.0,39.1,29.79,NE,46,0.0,0.0,86,0.00,,,0.06,Wunderground v.1.15,2013-09-25 05:56:00,
2013-09-24 23:02:00,42.9,39.0,29.79,NE,46,0.0,0.0,86,0.00,,,0.06,Wunderground v.1.15,2013-09-25 06:02:00,
2013-09-24 23:08:00,42.8,39.2,29.79,NE,46,0.0,0.0,87,0.00,,,0.06,Wunderground v.1.15,2013-09-25 06:08:00,
2013-09-24 23:14:00,42.7,39.1,29.79,NE,46,0.0,2.0,87,0.00,,,0.06,Wunderground v.1.15,2013-09-25 06:14:00,
2013-09-24 23:20:00,42.4,38.8,29.78,NE,46,0.0,0.0,87,0.00,,,0.06,Wunderground v.1.15,2013-09-25 06:20:00,
2013-09-24 23:26:00,42.2,38.9,29.78,NE,46,0.0,0.0,88,0.00,,,0.06,Wunderground v.1.15,2013-09-25 06:26:00,
2013-09-24 23:32:00,42.1,38.8,29.78,NE,46,0.0,0.0,88,0.00,,,0.06,Wunderground v.1.15,2013-09-25 06:32:00,
2013-09-24 23:38:00,42.1,38.8,29.78,NE,46,0.0,0.0,88,0.00,,,0.06,Wunderground v.1.15,2013-09-25 06:38:00,
2013-09-24 23:44:00,42.0,38.7,29.78,NE,46,0.0,0.0,88,0.00,,,0.06,Wunderground v.1.15,2013-09-25 06:44:00,
2013-09-24 23:50:00,42.0,38.7,29.78,NE,46,0.0,0.0,88,0.00,,,0.06,Wunderground v.1.15,2013-09-25 06:50:00,
2013-09-24 23:56:00,41.9,38.6,29.78,NE,46,0.0,0.0,88,0.00,,,0.06,Wunderground v.1.15,2013-09-25 06:56:00,